Time,TemperatureF,DewpointF,PressureIn,WindDirection,WindDirectionDegrees,WindSpeedMPH,WindSpeedGustMPH,Humidity,HourlyPrecipIn,Conditions,Clouds,dailyrainin,SoftwareType,DateUTC
2013-03-03 00:00:00,28.8,19.9,29.89,NNW,332,0.0,7.0,69,0.00,,,0.00,meteohub,2013-03-03 05:00:00,
2013-03-03 00:03:00,28.8,19.9,29.89,NNW,332,2.0,7.0,69,0.00,,,0.00,meteohub,2013-03-03 05:03:00,
2013-03-03 00:04:00,28.8,19.9,29.89,NNW,331,4.0,7.0,69,0.00,,,0.00,meteohub,2013-03-03 05:04:00,
2013-03-03 00:09:00,28.6,20.1,29.89,NW,323,4.0,7.0,70,0.00,,,0.00,meteohub,2013-03-03 05:09:00,
2013-03-03 00:14:00,28.8,20.3,29.89,NW,326,4.0,8.0,70,0.00,,,0.00,meteohub,2013-03-03 05:14:00,
2013-03-03 00:19:00,28.8,20.3,29.89,NW,321,10.0,15.0,70,0.00,,,0.00,meteohub,2013-03-03 05:19:00,
2013-03-03 00:24:00,28.9,20.1,29.89,NW,318,11.0,15.0,69,0.00,,,0.00,meteohub,2013-03-03 05:24:00,
2013-03-03 00:29:00,28.9,20.1,29.89,NNW,329,8.0,15.0,69,0.00,,,0.00,meteohub,2013-03-03 05:29:00,
2013-03-03 00:34:00,29.1,19.9,29.89,NW,320,5.0,13.0,68,0.00,,,0.00,meteohub,2013-03-03 05:34:00,
2013-03-03 00:40:00,29.1,19.9,29.89,NW,325,7.0,16.0,68,0.00,,,0.00,meteohub,2013-03-03 05:40:00,
2013-03-03 00:45:00,29.1,19.6,29.89,NW,311,9.0,16.0,67,0.00,,,0.00,meteohub,2013-03-03 05:45:00,
2013-03-03 00:50:00,29.3,19.8,29.89,WNW,290,11.0,18.0,67,0.00,,,0.00,meteohub,2013-03-03 05:50:00,
2013-03-03 00:55:00,29.3,19.8,29.88,NW,305,12.0,18.0,67,0.00,,,0.00,meteohub,2013-03-03 05:55:00,
2013-03-03 01:00:00,29.3,19.8,29.89,NW,315,4.0,18.0,67,0.00,,,0.00,meteohub,2013-03-03 06:00:00,
2013-03-03 01:05:00,29.3,19.8,29.89,NW,322,7.0,17.0,67,0.00,,,0.00,meteohub,2013-03-03 06:05:00,
2013-03-03 01:10:00,29.1,19.6,29.89,NW,318,1.0,16.0,67,0.00,,,0.00,meteohub,2013-03-03 06:10:00,
2013-03-03 01:15:00,29.1,19.6,29.89,NW,323,13.0,16.0,67,0.00,,,0.00,meteohub,2013-03-03 06:15:00,
2013-03-03 01:20:00,29.1,19.6,29.89,NW,323,9.0,13.0,67,0.00,,,0.00,meteohub,2013-03-03 06:20:00,
2013-03-03 01:25:00,29.1,19.6,29.89,NW,311,5.0,13.0,67,0.00,,,0.00,meteohub,2013-03-03 06:25:00,
2013-03-03 01:30:00,29.1,19.6,29.88,NW,324,3.0,13.0,67,0.00,,,0.00,meteohub,2013-03-03 06:30:00,
2013-03-03 01:36:00,28.9,19.4,29.89,NW,314,7.0,13.0,67,0.00,,,0.00,meteohub,2013-03-03 06:36:00,
2013-03-03 01:41:00,28.9,19.4,29.89,NW,317,2.0,12.0,67,0.00,,,0.00,meteohub,2013-03-03 06:41:00,
2013-03-03 01:46:00,28.8,19.6,29.88,NNW,339,3.0,12.0,68,0.00,,,0.00,meteohub,2013-03-03 06:46:00,
2013-03-03 01:51:00,28.8,19.6,29.89,NNW,335,2.0,12.0,68,0.00,,,0.00,meteohub,2013-03-03 06:51:00,
2013-03-03 01:56:00,28.8,19.6,29.89,NW,322,7.0,9.0,68,0.00,,,0.00,meteohub,2013-03-03 06:56:00,
2013-03-03 02:01:00,28.8,19.6,29.88,NNW,336,0.0,9.0,68,0.00,,,0.00,meteohub,2013-03-03 07:01:00,
2013-03-03 02:06:00,28.6,19.4,29.88,NNW,328,5.0,9.0,68,0.00,,,0.00,meteohub,2013-03-03 07:06:00,
2013-03-03 02:11:00,28.6,19.8,29.88,NW,306,3.0,11.0,69,0.00,,,0.00,meteohub,2013-03-03 07:11:00,
2013-03-03 02:16:00,28.6,19.8,29.88,WNW,301,13.0,15.0,69,0.00,,,0.00,meteohub,2013-03-03 07:16:00,
2013-03-03 02:21:00,28.6,19.8,29.88,WNW,293,10.0,15.0,69,0.00,,,0.00,meteohub,2013-03-03 07:21:00,
2013-03-03 02:26:00,28.8,19.9,29.88,WNW,300,10.0,15.0,69,0.00,,,0.00,meteohub,2013-03-03 07:26:00,
2013-03-03 02:32:00,28.8,19.9,29.88,NW,307,4.0,14.0,69,0.00,,,0.00,meteohub,2013-03-03 07:32:00,
2013-03-03 02:37:00,28.8,19.9,29.88,WNW,302,8.0,13.0,69,0.00,,,0.00,meteohub,2013-03-03 07:37:00,
2013-03-03 02:42:00,28.9,20.1,29.88,North,11,7.0,15.0,69,0.00,,,0.00,meteohub,2013-03-03 07:42:00,
2013-03-03 02:47:00,29.1,20.3,29.88,WNW,300,11.0,15.0,69,0.00,,,0.00,meteohub,2013-03-03 07:47:00,
2013-03-03 02:52:00,29.1,19.9,29.88,NW,308,6.0,15.0,68,0.00,,,0.00,meteohub,2013-03-03 07:52:00,
2013-03-03 02:57:00,29.3,20.1,29.88,NW,311,0.0,15.0,68,0.00,,,0.00,meteohub,2013-03-03 07:57:00,
2013-03-03 03:02:00,29.5,20.3,29.88,NNW,334,5.0,15.0,68,0.00,,,0.00,meteohub,2013-03-03 08:02:00,
2013-03-03 03:07:00,29.5,20.3,29.88,NW,313,9.0,12.0,68,0.00,,,0.00,meteohub,2013-03-03 08:07:00,
2013-03-03 03:12:00,29.7,20.5,29.88,NW,311,2.0,14.0,68,0.00,,,0.00,meteohub,2013-03-03 08:12:00,
2013-03-03 03:17:00,29.7,20.5,29.88,NW,323,2.0,16.0,68,0.00,,,0.00,meteohub,2013-03-03 08:17:00,
2013-03-03 03:22:00,29.7,20.5,29.88,NW,319,0.0,16.0,68,0.00,,,0.00,meteohub,2013-03-03 08:22:00,
2013-03-03 03:27:00,29.7,20.5,29.87,NW,306,2.0,15.0,68,0.00,,,0.00,meteohub,2013-03-03 08:27:00,
2013-03-03 03:32:00,29.7,20.5,29.88,NNW,342,1.0,14.0,68,0.00,,,0.00,meteohub,2013-03-03 08:32:00,
2013-03-03 03:37:00,29.7,20.5,29.87,NW,322,0.0,14.0,68,0.00,,,0.00,meteohub,2013-03-03 08:37:00,
2013-03-03 03:42:00,29.7,20.5,29.87,NW,316,10.0,13.0,68,0.00,,,0.00,meteohub,2013-03-03 08:42:00,
2013-03-03 03:47:00,29.7,20.5,29.88,NNW,340,9.0,15.0,68,0.00,,,0.00,meteohub,2013-03-03 08:47:00,
2013-03-03 03:52:00,29.7,20.5,29.87,NW,313,9.0,15.0,68,0.00,,,0.00,meteohub,2013-03-03 08:52:00,
2013-03-03 03:57:00,29.5,20.7,29.87,NNW,337,9.0,15.0,69,0.00,,,0.00,meteohub,2013-03-03 08:57:00,
2013-03-03 04:02:00,29.3,20.5,29.87,NNW,331,5.0,14.0,69,0.00,,,0.00,meteohub,2013-03-03 09:02:00,
2013-03-03 04:07:00,29.3,20.5,29.87,NNW,337,0.0,14.0,69,0.00,,,0.00,meteohub,2013-03-03 09:07:00,
2013-03-03 04:12:00,29.1,20.3,29.87,NW,322,0.0,12.0,69,0.00,,,0.00,meteohub,2013-03-03 09:12:00,
2013-03-03 04:17:00,29.1,20.3,29.87,NW,318,5.0,9.0,69,0.00,,,0.00,meteohub,2013-03-03 09:17:00,
2013-03-03 04:22:00,29.3,20.5,29.87,NW,325,2.0,9.0,69,0.00,,,0.00,meteohub,2013-03-03 09:22:00,
2013-03-03 04:27:00,29.3,20.5,29.87,NW,323,2.0,9.0,69,0.00,,,0.00,meteohub,2013-03-03 09:27:00,
2013-03-03 04:32:00,29.3,20.7,29.88,NW,326,2.0,7.0,70,0.00,,,0.00,meteohub,2013-03-03 09:32:00,
2013-03-03 04:37:00,29.5,20.7,29.88,NW,319,0.0,9.0,69,0.00,,,0.00,meteohub,2013-03-03 09:37:00,
2013-03-03 04:42:00,29.5,20.7,29.88,NW,315,5.0,9.0,69,0.00,,,0.00,meteohub,2013-03-03 09:42:00,
2013-03-03 04:47:00,29.5,20.7,29.88,NW,306,4.0,10.0,69,0.00,,,0.00,meteohub,2013-03-03 09:47:00,
2013-03-03 04:52:00,29.7,20.7,29.88,NW,322,0.0,11.0,69,0.00,,,0.00,meteohub,2013-03-03 09:52:00,
2013-03-03 04:57:00,29.7,20.7,29.88,NNW,338,4.0,11.0,69,0.00,,,0.00,meteohub,2013-03-03 09:57:00,
2013-03-03 05:02:00,29.7,20.7,29.88,NW,317,4.0,11.0,69,0.00,,,0.00,meteohub,2013-03-03 10:02:00,
2013-03-03 05:07:00,29.7,20.7,29.88,NW,326,4.0,11.0,69,0.00,,,0.00,meteohub,2013-03-03 10:07:00,
2013-03-03 05:12:00,29.8,20.8,29.88,NW,309,9.0,11.0,69,0.00,,,0.00,meteohub,2013-03-03 10:12:00,
2013-03-03 05:17:00,29.8,20.8,29.88,NW,315,7.0,11.0,69,0.00,,,0.00,meteohub,2013-03-03 10:17:00,
2013-03-03 05:22:00,29.8,20.8,29.88,NW,315,3.0,11.0,69,0.00,,,0.00,meteohub,2013-03-03 10:22:00,
2013-03-03 05:27:00,29.8,20.8,29.88,NW,311,3.0,10.0,69,0.00,,,0.00,meteohub,2013-03-03 10:27:00,
2013-03-03 05:32:00,29.8,20.8,29.88,NW,321,1.0,10.0,69,0.00,,,0.00,meteohub,2013-03-03 10:32:00,
2013-03-03 05:37:00,29.8,21.2,29.88,NW,325,4.0,8.0,70,0.00,,,0.00,meteohub,2013-03-03 10:37:00,
2013-03-03 05:42:00,29.8,20.8,29.88,NW,322,4.0,10.0,69,0.00,,,0.00,meteohub,2013-03-03 10:42:00,
2013-03-03 05:47:00,29.8,20.8,29.88,NW,318,4.0,10.0,69,0.00,,,0.00,meteohub,2013-03-03 10:47:00,
2013-03-03 05:53:00,29.8,20.8,29.88,NNW,331,0.0,10.0,69,0.00,,,0.00,meteohub,2013-03-03 10:53:00,
2013-03-03 05:58:00,29.8,20.8,29.88,NNW,331,0.0,10.0,69,0.00,,,0.00,meteohub,2013-03-03 10:58:00,
2013-03-03 06:03:00,29.8,21.2,29.88,NNW,330,0.0,10.0,70,0.00,,,0.00,meteohub,2013-03-03 11:03:00,
2013-03-03 06:08:00,29.8,21.2,29.88,NNW,330,0.0,5.0,70,0.00,,,0.00,meteohub,2013-03-03 11:08:00,
2013-03-03 06:13:00,29.8,21.2,29.88,NNW,331,0.0,4.0,70,0.00,,,0.00,meteohub,2013-03-03 11:13:00,
2013-03-03 06:18:00,29.7,21.0,29.88,NNW,333,4.0,4.0,70,0.00,,,0.00,meteohub,2013-03-03 11:18:00,
2013-03-03 06:23:00,29.7,21.0,29.88,NW,320,3.0,5.0,70,0.00,,,0.00,meteohub,2013-03-03 11:23:00,
2013-03-03 06:28:00,29.7,21.4,29.88,NW,318,6.0,7.0,71,0.00,,,0.00,meteohub,2013-03-03 11:28:00,
2013-03-03 06:34:00,29.7,21.0,29.88,NW,323,3.0,7.0,70,0.00,,,0.00,meteohub,2013-03-03 11:34:00,
2013-03-03 06:39:00,29.7,21.4,29.88,NW,322,4.0,10.0,71,0.00,,,0.00,meteohub,2013-03-03 11:39:00,
2013-03-03 06:44:00,29.7,21.4,29.88,NW,323,0.0,10.0,71,0.00,,,0.00,meteohub,2013-03-03 11:44:00,
2013-03-03 06:49:00,29.7,21.4,29.88,NW,319,1.0,6.0,71,0.00,,,0.00,meteohub,2013-03-03 11:49:00,
2013-03-03 06:54:00,29.7,21.4,29.88,NW,319,0.0,7.0,71,0.00,,,0.00,meteohub,2013-03-03 11:54:00,
2013-03-03 06:59:00,29.7,21.4,29.88,NW,319,2.0,7.0,71,0.00,,,0.00,meteohub,2013-03-03 11:59:00,
2013-03-03 07:04:00,29.8,21.6,29.88,NW,316,0.0,7.0,71,0.00,,,0.00,meteohub,2013-03-03 12:04:00,
2013-03-03 07:09:00,29.8,21.6,29.88,NW,311,3.0,7.0,71,0.00,,,0.00,meteohub,2013-03-03 12:09:00,
2013-03-03 07:15:00,30.0,21.7,29.88,NW,319,6.0,7.0,71,0.00,,,0.00,meteohub,2013-03-03 12:15:00,
2013-03-03 07:20:00,30.0,21.7,29.89,NW,319,3.0,12.0,71,0.00,,,0.00,meteohub,2013-03-03 12:20:00,
2013-03-03 07:25:00,30.2,21.6,29.89,NNW,344,0.0,12.0,70,0.00,,,0.00,meteohub,2013-03-03 12:25:00,
2013-03-03 07:30:00,30.4,21.7,29.89,NW,309,2.0,11.0,70,0.00,,,0.00,meteohub,2013-03-03 12:30:00,
2013-03-03 07:35:00,30.6,21.9,29.89,WNW,302,6.0,10.0,70,0.00,,,0.00,meteohub,2013-03-03 12:35:00,
2013-03-03 07:40:00,30.7,21.7,29.89,NW,304,0.0,11.0,69,0.00,,,0.00,meteohub,2013-03-03 12:40:00,
2013-03-03 07:45:00,31.1,21.7,29.89,NW,310,10.0,18.0,68,0.00,,,0.00,meteohub,2013-03-03 12:45:00,
2013-03-03 07:50:00,31.3,21.2,29.89,NW,323,9.0,22.0,66,0.00,,,0.00,meteohub,2013-03-03 12:50:00,
2013-03-03 07:55:00,31.5,21.0,29.89,NW,318,7.0,22.0,65,0.00,,,0.00,meteohub,2013-03-03 12:55:00,
2013-03-03 08:00:00,31.6,20.8,29.89,NW,322,7.0,22.0,64,0.00,,,0.00,meteohub,2013-03-03 13:00:00,
2013-03-03 08:06:00,31.6,20.1,29.89,NW,313,10.0,21.0,62,0.00,,,0.00,meteohub,2013-03-03 13:06:00,
2013-03-03 08:11:00,31.8,20.3,29.89,NNW,342,12.0,21.0,62,0.00,,,0.00,meteohub,2013-03-03 13:11:00,
2013-03-03 08:16:00,32.2,19.9,29.90,NNW,336,6.0,22.0,60,0.00,,,0.00,meteohub,2013-03-03 13:16:00,
2013-03-03 08:21:00,32.4,19.6,29.89,NNW,344,13.0,24.0,59,0.00,,,0.00,meteohub,2013-03-03 13:21:00,
2013-03-03 08:26:00,32.5,19.8,29.89,NW,314,9.0,24.0,59,0.00,,,0.00,meteohub,2013-03-03 13:26:00,
2013-03-03 08:31:00,32.7,19.9,29.90,WNW,299,10.0,24.0,59,0.00,,,0.00,meteohub,2013-03-03 13:31:00,
2013-03-03 08:36:00,32.9,19.8,29.90,NNW,329,7.0,20.0,58,0.00,,,0.00,meteohub,2013-03-03 13:36:00,
2013-03-03 08:41:00,33.3,20.1,29.90,WNW,294,10.0,20.0,58,0.00,,,0.00,meteohub,2013-03-03 13:41:00,
2013-03-03 08:46:00,33.4,19.4,29.90,WNW,297,16.0,21.0,56,0.00,,,0.00,meteohub,2013-03-03 13:46:00,
2013-03-03 08:51:00,33.4,19.0,29.90,NNW,338,6.0,21.0,55,0.00,,,0.00,meteohub,2013-03-03 13:51:00,
2013-03-03 08:57:00,33.3,18.9,29.90,WNW,292,7.0,21.0,55,0.00,,,0.00,meteohub,2013-03-03 13:57:00,
2013-03-03 09:02:00,33.1,19.0,29.90,WNW,302,12.0,21.0,56,0.00,,,0.00,meteohub,2013-03-03 14:02:00,
2013-03-03 09:07:00,33.3,21.2,29.90,NNW,327,9.0,20.0,61,0.00,,,0.00,meteohub,2013-03-03 14:07:00,
2013-03-03 09:12:00,33.8,20.7,29.90,NW,304,6.0,20.0,58,0.00,,,0.00,meteohub,2013-03-03 14:12:00,
2013-03-03 09:17:00,34.3,20.7,29.90,NW,318,9.0,20.0,57,0.00,,,0.00,meteohub,2013-03-03 14:17:00,
2013-03-03 09:22:00,34.5,21.2,29.90,North,349,1.0,17.0,58,0.00,,,0.00,meteohub,2013-03-03 14:22:00,
2013-03-03 09:27:00,34.9,21.2,29.89,WNW,287,25.0,25.0,57,0.00,,,0.00,meteohub,2013-03-03 14:27:00,
2013-03-03 09:32:00,34.3,20.3,29.89,NNW,333,10.0,29.0,56,0.00,,,0.00,meteohub,2013-03-03 14:32:00,
2013-03-03 09:37:00,33.8,20.1,29.89,NW,323,7.0,29.0,57,0.00,,,0.00,meteohub,2013-03-03 14:37:00,
2013-03-03 09:42:00,33.8,20.7,29.89,West,281,19.0,29.0,58,0.00,,,0.00,meteohub,2013-03-03 14:42:00,
2013-03-03 09:47:00,34.0,19.9,29.89,NW,322,14.0,23.0,56,0.00,,,0.00,meteohub,2013-03-03 14:47:00,
2013-03-03 09:52:00,33.8,20.7,29.89,North,0,15.0,27.0,58,0.00,,,0.00,meteohub,2013-03-03 14:52:00,
2013-03-03 09:57:00,34.2,20.5,29.89,NNW,327,16.0,27.0,57,0.00,,,0.00,meteohub,2013-03-03 14:57:00,
2013-03-03 10:02:00,34.3,20.3,29.89,NW,313,21.0,24.0,56,0.00,,,0.00,meteohub,2013-03-03 15:02:00,
2013-03-03 10:07:00,34.3,20.3,29.89,NNW,337,14.0,27.0,56,0.00,,,0.00,meteohub,2013-03-03 15:07:00,
2013-03-03 10:12:00,34.5,20.5,29.89,NW,321,15.0,27.0,56,0.00,,,0.00,meteohub,2013-03-03 15:12:00,
2013-03-03 10:17:00,35.2,21.9,29.89,WNW,294,10.0,27.0,58,0.00,,,0.00,meteohub,2013-03-03 15:17:00,
2013-03-03 10:22:00,35.2,20.7,29.89,West,281,11.0,21.0,55,0.00,,,0.00,meteohub,2013-03-03 15:22:00,
2013-03-03 10:27:00,34.9,20.3,29.89,NW,304,11.0,23.0,55,0.00,,,0.00,meteohub,2013-03-03 15:27:00,
2013-03-03 10:32:00,34.9,19.9,29.89,NNW,339,12.0,23.0,54,0.00,,,0.00,meteohub,2013-03-03 15:32:00,
2013-03-03 10:37:00,34.7,19.4,29.89,NW,319,11.0,22.0,53,0.00,,,0.00,meteohub,2013-03-03 15:37:00,
2013-03-03 10:42:00,34.5,19.6,29.89,NNW,327,13.0,26.0,54,0.00,,,0.00,meteohub,2013-03-03 15:42:00,
2013-03-03 10:47:00,34.7,19.8,29.89,WNW,297,18.0,26.0,54,0.00,,,0.00,meteohub,2013-03-03 15:47:00,
2013-03-03 10:52:00,34.7,19.4,29.89,NNW,346,16.0,26.0,53,0.00,,,0.00,meteohub,2013-03-03 15:52:00,
2013-03-03 10:57:00,34.7,19.4,29.89,NW,325,11.0,20.0,53,0.00,,,0.00,meteohub,2013-03-03 15:57:00,
2013-03-03 11:02:00,34.7,19.4,29.89,NW,325,3.0,20.0,53,0.00,,,0.00,meteohub,2013-03-03 16:02:00,
2013-03-03 11:08:00,34.7,19.4,29.89,NW,306,11.0,18.0,53,0.00,,,0.00,meteohub,2013-03-03 16:08:00,
2013-03-03 11:13:00,34.3,19.0,29.89,WNW,286,11.0,20.0,53,0.00,,,0.00,meteohub,2013-03-03 16:13:00,
2013-03-03 11:18:00,34.3,19.0,29.89,WNW,302,16.0,21.0,53,0.00,,,0.00,meteohub,2013-03-03 16:18:00,
2013-03-03 11:23:00,34.3,19.4,29.89,WNW,291,14.0,21.0,54,0.00,,,0.00,meteohub,2013-03-03 16:23:00,
2013-03-03 11:28:00,34.3,19.0,29.89,WNW,294,11.0,21.0,53,0.00,,,0.00,meteohub,2013-03-03 16:28:00,
2013-03-03 11:33:00,34.5,19.2,29.89,WNW,303,13.0,22.0,53,0.00,,,0.00,meteohub,2013-03-03 16:33:00,
2013-03-03 11:38:00,35.1,20.1,29.88,WNW,298,12.0,22.0,54,0.00,,,0.00,meteohub,2013-03-03 16:38:00,
2013-03-03 11:43:00,35.4,19.9,29.88,WNW,292,13.0,22.0,53,0.00,,,0.00,meteohub,2013-03-03 16:43:00,
2013-03-03 11:49:00,35.2,19.4,29.88,NNW,335,4.0,20.0,52,0.00,,,0.00,meteohub,2013-03-03 16:49:00,
2013-03-03 11:54:00,35.2,19.4,29.88,WNW,299,12.0,21.0,52,0.00,,,0.00,meteohub,2013-03-03 16:54:00,
2013-03-03 11:59:00,35.2,20.3,29.88,NNW,327,6.0,21.0,54,0.00,,,0.00,meteohub,2013-03-03 16:59:00,
2013-03-03 12:04:00,35.8,20.3,29.88,NW,309,12.0,21.0,53,0.00,,,0.00,meteohub,2013-03-03 17:04:00,
2013-03-03 12:09:00,35.8,19.9,29.88,NW,307,13.0,24.0,52,0.00,,,0.00,meteohub,2013-03-03 17:09:00,
2013-03-03 12:14:00,35.6,19.8,29.88,NW,306,7.0,24.0,52,0.00,,,0.00,meteohub,2013-03-03 17:14:00,
2013-03-03 12:19:00,35.6,19.8,29.88,WNW,288,11.0,24.0,52,0.00,,,0.00,meteohub,2013-03-03 17:19:00,
2013-03-03 12:24:00,35.8,20.8,29.88,West,273,14.0,21.0,54,0.00,,,0.00,meteohub,2013-03-03 17:24:00,
2013-03-03 12:29:00,35.6,20.7,29.87,NNW,332,11.0,19.0,54,0.00,,,0.00,meteohub,2013-03-03 17:29:00,
2013-03-03 12:35:00,35.4,20.8,29.87,WNW,285,10.0,19.0,55,0.00,,,0.00,meteohub,2013-03-03 17:35:00,
2013-03-03 12:40:00,35.4,19.9,29.87,West,280,16.0,19.0,53,0.00,,,0.00,meteohub,2013-03-03 17:40:00,
2013-03-03 12:45:00,35.4,19.9,29.87,West,281,9.0,18.0,53,0.00,,,0.00,meteohub,2013-03-03 17:45:00,
2013-03-03 12:50:00,35.6,20.7,29.87,WNW,301,12.0,18.0,54,0.00,,,0.00,meteohub,2013-03-03 17:50:00,
2013-03-03 12:55:00,35.4,19.9,29.86,West,281,12.0,21.0,53,0.00,,,0.00,meteohub,2013-03-03 17:55:00,
2013-03-03 13:00:00,35.4,19.9,29.86,WNW,294,6.0,21.0,53,0.00,,,0.00,meteohub,2013-03-03 18:00:00,
2013-03-03 13:05:00,35.6,20.7,29.86,West,279,13.0,20.0,54,0.00,,,0.00,meteohub,2013-03-03 18:05:00,
2013-03-03 13:10:00,35.8,20.3,29.86,WNW,298,12.0,20.0,53,0.00,,,0.00,meteohub,2013-03-03 18:10:00,
2013-03-03 13:16:00,36.1,20.7,29.86,West,281,9.0,20.0,53,0.00,,,0.00,meteohub,2013-03-03 18:16:00,
2013-03-03 13:21:00,36.1,20.3,29.86,WNW,299,9.0,20.0,52,0.00,,,0.00,meteohub,2013-03-03 18:21:00,
2013-03-03 13:26:00,36.1,20.3,29.85,West,275,15.0,24.0,52,0.00,,,0.00,meteohub,2013-03-03 18:26:00,
2013-03-03 13:31:00,36.3,20.3,29.85,NW,321,17.0,24.0,52,0.00,,,0.00,meteohub,2013-03-03 18:31:00,
2013-03-03 13:36:00,36.3,19.9,29.85,NNW,336,7.0,25.0,51,0.00,,,0.00,meteohub,2013-03-03 18:36:00,
2013-03-03 13:41:00,36.3,19.9,29.85,NNW,333,3.0,25.0,51,0.00,,,0.00,meteohub,2013-03-03 18:41:00,
2013-03-03 13:46:00,36.5,20.1,29.85,NW,307,11.0,21.0,51,0.00,,,0.00,meteohub,2013-03-03 18:46:00,
2013-03-03 13:51:00,36.7,20.7,29.84,WNW,302,13.0,21.0,52,0.00,,,0.00,meteohub,2013-03-03 18:51:00,
2013-03-03 13:56:00,36.9,20.5,29.84,West,278,9.0,25.0,51,0.00,,,0.00,meteohub,2013-03-03 18:56:00,
2013-03-03 14:02:00,37.0,21.0,29.84,NW,325,3.0,25.0,52,0.00,,,0.00,meteohub,2013-03-03 19:02:00,
2013-03-03 14:07:00,37.4,20.8,29.84,North,355,8.0,25.0,51,0.00,,,0.00,meteohub,2013-03-03 19:07:00,
2013-03-03 14:12:00,37.4,20.5,29.84,WNW,302,10.0,19.0,50,0.00,,,0.00,meteohub,2013-03-03 19:12:00,
2013-03-03 14:17:00,37.6,21.0,29.84,North,5,9.0,19.0,51,0.00,,,0.00,meteohub,2013-03-03 19:17:00,
2013-03-03 14:22:00,37.6,20.7,29.84,WNW,294,1.0,19.0,50,0.00,,,0.00,meteohub,2013-03-03 19:22:00,
2013-03-03 14:27:00,37.9,21.4,29.84,NW,309,10.0,18.0,51,0.00,,,0.00,meteohub,2013-03-03 19:27:00,
2013-03-03 14:32:00,37.9,20.5,29.84,NW,313,14.0,18.0,49,0.00,,,0.00,meteohub,2013-03-03 19:32:00,
2013-03-03 14:37:00,37.9,21.0,29.84,NNW,327,9.0,21.0,50,0.00,,,0.00,meteohub,2013-03-03 19:37:00,
2013-03-03 14:42:00,38.3,21.2,29.84,WNW,296,13.0,24.0,50,0.00,,,0.00,meteohub,2013-03-03 19:42:00,
2013-03-03 14:48:00,38.5,21.4,29.84,NW,323,10.0,24.0,50,0.00,,,0.00,meteohub,2013-03-03 19:48:00,
2013-03-03 14:53:00,38.7,21.2,29.84,NNW,338,11.0,24.0,49,0.00,,,0.00,meteohub,2013-03-03 19:53:00,
2013-03-03 14:58:00,38.7,21.2,29.83,NW,305,15.0,22.0,49,0.00,,,0.00,meteohub,2013-03-03 19:58:00,
2013-03-03 15:03:00,38.8,21.4,29.83,NW,315,11.0,22.0,49,0.00,,,0.00,meteohub,2013-03-03 20:03:00,
2013-03-03 15:08:00,38.8,21.4,29.83,NNW,328,9.0,22.0,49,0.00,,,0.00,meteohub,2013-03-03 20:08:00,
2013-03-03 15:13:00,39.0,21.6,29.83,West,281,21.0,22.0,49,0.00,,,0.00,meteohub,2013-03-03 20:13:00,
2013-03-03 15:18:00,39.4,21.7,29.83,WNW,298,10.0,20.0,49,0.00,,,0.00,meteohub,2013-03-03 20:18:00,
2013-03-03 15:24:00,39.2,21.2,29.83,WNW,293,12.0,22.0,48,0.00,,,0.00,meteohub,2013-03-03 20:24:00,
2013-03-03 15:29:00,38.7,21.2,29.83,West,263,11.0,24.0,49,0.00,,,0.00,meteohub,2013-03-03 20:29:00,
2013-03-03 15:34:00,38.5,21.4,29.84,WNW,286,16.0,24.0,50,0.00,,,0.00,meteohub,2013-03-03 20:34:00,
2013-03-03 15:39:00,38.5,21.4,29.84,West,268,16.0,24.0,50,0.00,,,0.00,meteohub,2013-03-03 20:39:00,
2013-03-03 15:44:00,38.5,21.4,29.84,West,269,14.0,21.0,50,0.00,,,0.00,meteohub,2013-03-03 20:44:00,
2013-03-03 15:49:00,38.5,21.4,29.84,WNW,292,13.0,21.0,50,0.00,,,0.00,meteohub,2013-03-03 20:49:00,
2013-03-03 15:54:00,38.3,21.2,29.84,WNW,286,15.0,23.0,50,0.00,,,0.00,meteohub,2013-03-03 20:54:00,
2013-03-03 15:59:00,38.1,21.2,29.84,WNW,296,16.0,23.0,50,0.00,,,0.00,meteohub,2013-03-03 20:59:00,
2013-03-03 16:05:00,37.8,21.2,29.85,WNW,289,16.0,23.0,51,0.00,,,0.00,meteohub,2013-03-03 21:05:00,
2013-03-03 16:10:00,37.6,20.7,29.84,NW,309,7.0,25.0,50,0.00,,,0.00,meteohub,2013-03-03 21:10:00,
2013-03-03 16:15:00,37.2,20.8,29.84,NW,311,9.0,25.0,51,0.00,,,0.00,meteohub,2013-03-03 21:15:00,
2013-03-03 16:20:00,36.9,20.5,29.85,WNW,292,16.0,19.0,51,0.00,,,0.00,meteohub,2013-03-03 21:20:00,
2013-03-03 16:25:00,36.7,20.7,29.85,West,274,16.0,20.0,52,0.00,,,0.00,meteohub,2013-03-03 21:25:00,
2013-03-03 16:30:00,36.5,20.5,29.85,WNW,285,14.0,21.0,52,0.00,,,0.00,meteohub,2013-03-03 21:30:00,
2013-03-03 16:35:00,36.3,20.3,29.85,WNW,293,11.0,21.0,52,0.00,,,0.00,meteohub,2013-03-03 21:35:00,
2013-03-03 16:40:00,36.3,20.8,29.85,NW,312,9.0,21.0,53,0.00,,,0.00,meteohub,2013-03-03 21:40:00,
2013-03-03 16:46:00,36.3,20.3,29.85,WNW,297,16.0,21.0,52,0.00,,,0.00,meteohub,2013-03-03 21:46:00,
2013-03-03 16:51:00,36.3,20.3,29.85,WNW,301,13.0,22.0,52,0.00,,,0.00,meteohub,2013-03-03 21:51:00,
2013-03-03 16:56:00,36.5,20.5,29.85,West,277,16.0,22.0,52,0.00,,,0.00,meteohub,2013-03-03 21:56:00,
2013-03-03 17:01:00,36.5,20.1,29.86,WNW,302,17.0,23.0,51,0.00,,,0.00,meteohub,2013-03-03 22:01:00,
2013-03-03 17:06:00,36.3,19.9,29.86,WNW,288,17.0,23.0,51,0.00,,,0.00,meteohub,2013-03-03 22:06:00,
2013-03-03 17:11:00,36.1,20.3,29.85,WNW,293,12.0,23.0,52,0.00,,,0.00,meteohub,2013-03-03 22:11:00,
2013-03-03 17:16:00,36.0,20.1,29.86,WNW,300,15.0,23.0,52,0.00,,,0.00,meteohub,2013-03-03 22:16:00,
2013-03-03 17:21:00,36.0,20.1,29.86,WNW,288,16.0,24.0,52,0.00,,,0.00,meteohub,2013-03-03 22:21:00,
2013-03-03 17:27:00,35.8,19.9,29.86,NW,315,9.0,24.0,52,0.00,,,0.00,meteohub,2013-03-03 22:27:00,
2013-03-03 17:32:00,35.4,19.6,29.86,WNW,295,10.0,24.0,52,0.00,,,0.00,meteohub,2013-03-03 22:32:00,
2013-03-03 17:37:00,35.2,19.4,29.87,WNW,296,12.0,22.0,52,0.00,,,0.00,meteohub,2013-03-03 22:37:00,
2013-03-03 17:42:00,35.1,19.6,29.87,WNW,295,11.0,17.0,53,0.00,,,0.00,meteohub,2013-03-03 22:42:00,
2013-03-03 17:47:00,34.9,19.4,29.87,NW,318,7.0,17.0,53,0.00,,,0.00,meteohub,2013-03-03 22:47:00,
2013-03-03 17:52:00,34.5,19.2,29.87,WNW,292,12.0,24.0,53,0.00,,,0.00,meteohub,2013-03-03 22:52:00,
2013-03-03 17:57:00,34.3,19.4,29.88,NW,304,11.0,27.0,54,0.00,,,0.00,meteohub,2013-03-03 22:57:00,
2013-03-03 18:02:00,34.3,19.4,29.88,WNW,302,6.0,27.0,54,0.00,,,0.00,meteohub,2013-03-03 23:02:00,
2013-03-03 18:07:00,34.3,19.4,29.88,NW,315,7.0,27.0,54,0.00,,,0.00,meteohub,2013-03-03 23:07:00,
2013-03-03 18:12:00,34.2,19.2,29.88,WNW,300,17.0,20.0,54,0.00,,,0.00,meteohub,2013-03-03 23:12:00,
2013-03-03 18:17:00,34.0,19.6,29.89,NNW,333,8.0,19.0,55,0.00,,,0.00,meteohub,2013-03-03 23:17:00,
2013-03-03 18:22:00,33.8,19.4,29.89,WNW,296,10.0,19.0,55,0.00,,,0.00,meteohub,2013-03-03 23:22:00,
2013-03-03 18:27:00,33.6,19.6,29.89,WNW,298,22.0,22.0,56,0.00,,,0.00,meteohub,2013-03-03 23:27:00,
2013-03-03 18:32:00,33.4,19.4,29.89,NW,316,9.0,22.0,56,0.00,,,0.00,meteohub,2013-03-03 23:32:00,
2013-03-03 18:37:00,33.3,19.2,29.89,NW,313,5.0,22.0,56,0.00,,,0.00,meteohub,2013-03-03 23:37:00,
2013-03-03 18:42:00,33.3,19.8,29.90,WNW,295,5.0,22.0,57,0.00,,,0.00,meteohub,2013-03-03 23:42:00,
2013-03-03 18:47:00,33.1,19.6,29.90,NW,305,3.0,16.0,57,0.00,,,0.00,meteohub,2013-03-03 23:47:00,
2013-03-03 18:52:00,32.9,19.4,29.90,NW,306,12.0,16.0,57,0.00,,,0.00,meteohub,2013-03-03 23:52:00,
2013-03-03 18:57:00,32.7,19.2,29.90,NW,318,13.0,14.0,57,0.00,,,0.00,meteohub,2013-03-03 23:57:00,
2013-03-03 19:02:00,32.7,19.6,29.91,NNW,346,5.0,17.0,58,0.00,,,0.00,meteohub,2013-03-04 00:02:00,
2013-03-03 19:07:00,32.5,19.4,29.91,NNW,340,9.0,17.0,58,0.00,,,0.00,meteohub,2013-03-04 00:07:00,
2013-03-03 19:12:00,32.5,19.4,29.91,NW,323,4.0,17.0,58,0.00,,,0.00,meteohub,2013-03-04 00:12:00,
2013-03-03 19:17:00,32.5,19.4,29.91,NW,307,8.0,15.0,58,0.00,,,0.00,meteohub,2013-03-04 00:17:00,
2013-03-03 19:22:00,32.4,19.2,29.91,WNW,288,13.0,15.0,58,0.00,,,0.00,meteohub,2013-03-04 00:22:00,
2013-03-03 19:27:00,32.4,19.2,29.91,NW,318,9.0,18.0,58,0.00,,,0.00,meteohub,2013-03-04 00:27:00,
2013-03-03 19:32:00,32.4,19.2,29.91,NNW,329,14.0,20.0,58,0.00,,,0.00,meteohub,2013-03-04 00:32:00,
2013-03-03 19:37:00,32.2,19.0,29.91,NW,307,13.0,20.0,58,0.00,,,0.00,meteohub,2013-03-04 00:37:00,
2013-03-03 19:42:00,32.2,19.0,29.92,NNW,337,12.0,20.0,58,0.00,,,0.00,meteohub,2013-03-04 00:42:00,
2013-03-03 19:47:00,32.0,18.9,29.91,WNW,288,13.0,18.0,58,0.00,,,0.00,meteohub,2013-03-04 00:47:00,
2013-03-03 19:52:00,31.8,18.7,29.92,WNW,294,5.0,20.0,58,0.00,,,0.00,meteohub,2013-03-04 00:52:00,
2013-03-03 19:57:00,31.8,18.7,29.92,WNW,294,12.0,20.0,58,0.00,,,0.00,meteohub,2013-03-04 00:57:00,
2013-03-03 20:02:00,31.6,18.5,29.92,WNW,292,12.0,20.0,58,0.00,,,0.00,meteohub,2013-03-04 01:02:00,
2013-03-03 20:07:00,31.6,18.5,29.91,NW,306,13.0,20.0,58,0.00,,,0.00,meteohub,2013-03-04 01:07:00,
2013-03-03 20:12:00,31.6,18.5,29.93,NNW,339,9.0,20.0,58,0.00,,,0.00,meteohub,2013-03-04 01:12:00,
2013-03-03 20:17:00,31.6,19.0,29.92,NW,314,3.0,19.0,59,0.00,,,0.00,meteohub,2013-03-04 01:17:00,
2013-03-03 20:22:00,31.5,18.9,29.93,NNW,334,14.0,17.0,59,0.00,,,0.00,meteohub,2013-03-04 01:22:00,
2013-03-03 20:28:00,31.5,18.9,29.93,NNW,346,3.0,17.0,59,0.00,,,0.00,meteohub,2013-03-04 01:28:00,
2013-03-03 20:33:00,31.3,18.7,29.93,North,0,6.0,17.0,59,0.00,,,0.00,meteohub,2013-03-04 01:33:00,
2013-03-03 20:38:00,31.3,19.0,29.93,NNW,338,7.0,17.0,60,0.00,,,0.00,meteohub,2013-03-04 01:38:00,
2013-03-03 20:43:00,30.9,18.7,29.94,NNW,330,0.0,14.0,60,0.00,,,0.00,meteohub,2013-03-04 01:43:00,
2013-03-03 20:48:00,30.7,18.9,29.94,NNW,333,7.0,12.0,61,0.00,,,0.00,meteohub,2013-03-04 01:48:00,
2013-03-03 20:53:00,30.7,18.5,29.94,North,355,11.0,14.0,60,0.00,,,0.00,meteohub,2013-03-04 01:53:00,
2013-03-03 20:58:00,30.6,18.3,29.94,WNW,296,10.0,14.0,60,0.00,,,0.00,meteohub,2013-03-04 01:58:00,
2013-03-03 21:04:00,30.6,18.7,29.94,North,355,4.0,14.0,61,0.00,,,0.00,meteohub,2013-03-04 02:04:00,
2013-03-03 21:09:00,30.4,18.5,29.94,NNW,335,4.0,12.0,61,0.00,,,0.00,meteohub,2013-03-04 02:09:00,
2013-03-03 21:14:00,30.4,18.5,29.94,NNW,331,6.0,12.0,61,0.00,,,0.00,meteohub,2013-03-04 02:14:00,
2013-03-03 21:19:00,30.4,18.9,29.94,NW,321,0.0,12.0,62,0.00,,,0.00,meteohub,2013-03-04 02:19:00,
2013-03-03 21:24:00,30.2,18.7,29.94,NW,323,6.0,13.0,62,0.00,,,0.00,meteohub,2013-03-04 02:24:00,
2013-03-03 21:29:00,30.2,18.7,29.94,NW,313,2.0,13.0,62,0.00,,,0.00,meteohub,2013-03-04 02:29:00,
2013-03-03 21:34:00,30.2,18.7,29.95,NW,326,5.0,13.0,62,0.00,,,0.00,meteohub,2013-03-04 02:34:00,
2013-03-03 21:39:00,30.0,18.5,29.95,WNW,300,11.0,12.0,62,0.00,,,0.00,meteohub,2013-03-04 02:39:00,
2013-03-03 21:45:00,30.0,18.5,29.95,NW,306,9.0,16.0,62,0.00,,,0.00,meteohub,2013-03-04 02:45:00,
2013-03-03 21:50:00,30.0,18.5,29.95,NNW,339,6.0,16.0,62,0.00,,,0.00,meteohub,2013-03-04 02:50:00,
2013-03-03 21:55:00,30.0,18.5,29.95,NW,319,10.0,14.0,62,0.00,,,0.00,meteohub,2013-03-04 02:55:00,
2013-03-03 22:00:00,30.0,18.5,29.95,NW,319,7.0,13.0,62,0.00,,,0.00,meteohub,2013-03-04 03:00:00,
2013-03-03 22:05:00,30.0,18.5,29.95,NNW,330,6.0,16.0,62,0.00,,,0.00,meteohub,2013-03-04 03:05:00,
2013-03-03 22:10:00,29.8,18.5,29.95,NW,325,9.0,16.0,62,0.00,,,0.00,meteohub,2013-03-04 03:10:00,
2013-03-03 22:15:00,29.8,18.5,29.95,WNW,299,5.0,16.0,62,0.00,,,0.00,meteohub,2013-03-04 03:15:00,
2013-03-03 22:20:00,29.8,18.5,29.95,NW,314,7.0,17.0,62,0.00,,,0.00,meteohub,2013-03-04 03:20:00,
2013-03-03 22:26:00,29.8,18.0,29.94,WNW,299,13.0,18.0,61,0.00,,,0.00,meteohub,2013-03-04 03:26:00,
2013-03-03 22:31:00,29.8,18.0,29.94,NW,315,14.0,19.0,61,0.00,,,0.00,meteohub,2013-03-04 03:31:00,
2013-03-03 22:36:00,29.8,17.6,29.95,NW,309,10.0,19.0,60,0.00,,,0.00,meteohub,2013-03-04 03:36:00,
2013-03-03 22:41:00,29.8,17.6,29.95,NNW,336,9.0,21.0,60,0.00,,,0.00,meteohub,2013-03-04 03:41:00,
2013-03-03 22:46:00,29.8,17.6,29.95,NW,325,6.0,21.0,60,0.00,,,0.00,meteohub,2013-03-04 03:46:00,
2013-03-03 22:51:00,29.8,17.6,29.95,NW,307,10.0,21.0,60,0.00,,,0.00,meteohub,2013-03-04 03:51:00,
2013-03-03 22:56:00,29.8,17.6,29.95,WNW,302,10.0,21.0,60,0.00,,,0.00,meteohub,2013-03-04 03:56:00,
2013-03-03 23:01:00,29.7,17.4,29.96,NW,319,6.0,21.0,60,0.00,,,0.00,meteohub,2013-03-04 04:01:00,
2013-03-03 23:06:00,29.7,17.4,29.95,WNW,297,12.0,21.0,60,0.00,,,0.00,meteohub,2013-03-04 04:06:00,
2013-03-03 23:12:00,29.7,17.4,29.95,NW,304,8.0,21.0,60,0.00,,,0.00,meteohub,2013-03-04 04:12:00,
2013-03-03 23:17:00,29.7,17.4,29.96,NW,317,11.0,20.0,60,0.00,,,0.00,meteohub,2013-03-04 04:17:00,
2013-03-03 23:22:00,29.7,17.4,29.96,WNW,290,14.0,20.0,60,0.00,,,0.00,meteohub,2013-03-04 04:22:00,
2013-03-03 23:27:00,29.5,17.2,29.95,NW,319,12.0,23.0,60,0.00,,,0.00,meteohub,2013-03-04 04:27:00,
2013-03-03 23:32:00,29.5,17.2,29.96,NNW,345,13.0,23.0,60,0.00,,,0.00,meteohub,2013-03-04 04:32:00,
2013-03-03 23:37:00,29.5,17.2,29.96,NNW,327,9.0,23.0,60,0.00,,,0.00,meteohub,2013-03-04 04:37:00,
2013-03-03 23:42:00,29.3,17.1,29.96,WNW,296,12.0,18.0,60,0.00,,,0.00,meteohub,2013-03-04 04:42:00,
2013-03-03 23:47:00,29.3,17.1,29.96,NW,315,7.0,18.0,60,0.00,,,0.00,meteohub,2013-03-04 04:47:00,
2013-03-03 23:52:00,29.1,16.9,29.96,NW,318,4.0,18.0,60,0.00,,,0.00,meteohub,2013-03-04 04:52:00,
2013-03-03 23:57:00,29.1,17.4,29.95,WNW,294,13.0,18.0,61,0.00,,,0.00,meteohub,2013-03-04 04:57:00,